www.pogodaiklimat.ru

Погода и климат >> Архив погоды >> Россия >> Якутия >> Кюсюр


ПОГОДА в Кюсюре

  • Прогноз погоды в Кюсюре
  • Монитор погоды в Кюсюре

АРХИВ ПОГОДЫ в Кюсюре

Время (UTC), дата Ветер
(напр.,м/с)
 
Видим.   Явления Облачность Т
(С)
Тd
(С)
f
(%)
Тe
(С)
Тes
(С)
Комфортность P
(гПа)
Po
(гПа)
Тmin
(С)
Tmax
(С)
R
(мм)
R24
(мм)
S
(см)
06 17.05 СВ 9-12
{14}
50 км позёмок 3/3 1000 м
[Sc]
-7.9 -13.5 64 -18 -17 1023.2 1018.9
09 17.05 СВ 8-10
{13}
50 км позёмок 3/3 1000 м
[Sc]
-7.8 -13.4 64 -17 -17 1024.9 1020.6
12 17.05 СВ 5
{10}
50 км {метель} 3/3 1000 м
[Sc]
-8.7 -14.1 65 -16 -16 1025.8 1021.5 -7.3
15 17.05 СВ 5 50 км 6/0
[Ac trans Ci fib]
-10.5 -15.8 65 -18 -18 1026.3 1022.0
18 17.05 СВ 6 50 км 8/0
[Ac trans Ci fib]
-10.3 -14.7 70 -19 -19 1026.6 1022.3
21 17.05 СВ 7 10 км слаб. снег 10/0
[As op]
-8.6 -13.4 68 -17 -17 1026.8 1022.5
00 18.05 СВ 8-10
{10}
50 км {снег} 10/0
[Ac und]
-7.7 -13.2 65 -17 -17 1026.6 1022.3 -11.1 0.0 41
03 18.05 СВ 8-11
{11}
50 км позёмок 8/6 1000 м
[Sc Ac trans]
-6.6 -12.7 62 -15 -15 1026.7 1022.5
06 18.05 СВ 6
{11}
50 км позёмок 9/9 1000 м
[Sc]
-6.5 -12.5 62 -14 -14 1026.5 1022.3
09 18.05 СВ 7-10
{11}
50 км позёмок {снег} 8/8 1000 м
[Sc]
-7.4 -12.8 65 -16 -16 1026.1 1021.9
12 18.05 СВ 5
{13}
50 км {снег, метель} 8/8 1000 м
[Sc]
-8.0 -13.1 67 -15 -15 1026.5 1022.2 -6.0 0.0
15 18.05 СВ 5 50 км {снег} 8/8 1000 м
[Sc]
-8.8 -13.2 70 -16 -16 1025.8 1021.5
18 18.05 С 4 50 км {снег} 4/4 1000 м
[Sc]
-11.0 -15.4 70 -18 -18 1025.0 1020.7
21 18.05 С 5 50 км 3/3 1000 м
[Sc]
-11.0 -14.5 75 -19 -18 1024.0 1019.7
00 19.05 С 5 50 км 3/0
[Ac lent]
-9.6 -14.2 69 -17 -15 1023.3 1019.0 -11.7 0.0 41
03 19.05 СВ 5 50 км 3/0
[Ac trans]
-8.4 -14.2 63 -16 -12 1022.4 1018.1
06 19.05 СВ 5 50 км ясно -7.8 -13.9 62 -15 -11 1021.6 1017.3
09 19.05 СВ 4 50 км 3/0
[Ac trans]
-7.9 -13.5 64 -14 -13 1020.8 1016.5
12 19.05 СВ 4 50 км 4/0
[Ac trans]
-10.3 -14.7 70 -17 -17 1020.3 1016.0 -7.5
15 19.05 СВ 3 50 км 10/0
[Ac und]
-11.3 -14.8 75 -17 -17 1019.3 1015.0
18 19.05 СВ 2 50 км 10/0
[Ac und]
-11.6 -15.1 75 -16 -16 1018.3 1014.1
21 19.05 СЗ 1 50 км 10/0
[Ac und]
-11.4 -15.8 70 -14 -13 1017.3 1013.1
00 20.05 штиль 0 50 км 4/0
[Ac trans]
-9.3 -15.5 61 -10 -3 1016.9 1012.7 -11.6 41
03 20.05 ЮЗ 2 50 км 4/0
[Ac trans Ci fib]
-7.2 -14.7 55 -11 -4 1015.8 1011.7
06 20.05 Ю 2 50 км 3/0
[Ac trans]
-5.4 -13.5 53 -9 -3 1015.3 1011.2
09 20.05 Ю 4 50 км 3/0
[Ac trans]
-4.8 -13.1 52 -11 -9 1014.8 1010.7
12 20.05 ЮЗ 3 50 км 3/0
[Ac trans]
-5.7 -12.9 57 -11 -11 1014.8 1010.7 -4.3
15 20.05 С 1 50 км 4/0
[Ac trans Ci fib]
-10.6 -15.9 65 -13 -13 1014.8 1010.6
18 20.05 СВ 2 50 км 6/0
[Ac trans Ci fib]
-12.6 -16.9 70 -17 -17 1014.5 1010.3
21 20.05 СВ 2 50 км 6/0
[Ac trans Ci fib]
-12.3 -16.6 70 -17 -15 1014.4 1010.2
00 21.05 СВ 2 50 км 8/0
[Ac trans Ci fib]
-8.0 -13.1 67 -12 -8 1014.2 1010.0 -14.5 40
03 21.05 В 2 50 км 6/0
[Ac trans Ci fib]
-3.8 -10.5 60 -7 -0 1013.8 1009.7
06 21.05 В 2 50 км 4/0
[Ac trans Ci fib]
-0.5 -9.8 49 -3 +3 1013.5 1009.4
09 21.05 В 1 50 км 3/0
[Ac trans]
-0.3 -6.9 61 -2 +1 1012.9 1008.8
12 21.05 В 2 50 км 3/0
[Ac trans]
-0.3 -9.0 52 -3 -3 1012.2 1008.1
15 21.05 В 1 50 км 4/0
[Ac trans]
-2.3 -9.1 60 -4 -4 1011.7 1007.6
18 21.05 штиль 0 50 км 4/0
[Ac trans Ci fib]
-4.4 -10.4 63 -5 -5 1011.2 1007.1
21 21.05 В 2 50 км 8/0
[Ac trans Ci fib]
-5.0 -10.8 64 -9 -7 1010.5 1006.4
00 22.05 В 2 50 км 6/0
[Ac trans Ci fib]
+2.8 -8.1 44 +1 +5 1009.3 1005.3 -6.2 39
03 22.05 В 2 50 км 6/0
[Ac trans]
+6.6 -5.9 40 +5 +11 1007.0 1003.0
06 22.05 СВ 3 50 км 3/0
[Ac trans]
+7.8 -5.6 38 +6 +11 1004.7 1000.8
09 22.05 СВ 3 50 км 4/0
[Ci fib]
+6.0 -5.2 44 +3 +6 1003.5 999.5
12 22.05 СВ 4 50 км ясно +6.0 -5.2 44 +3 +3 1002.0 998.0 +8.3
15 22.05 С 4 50 км ясно +3.4 -5.2 53 -1 -1 1000.8 996.8
18 22.05 С 2 50 км ясно +1.0 -6.9 56 -2 -2 999.7 995.7
21 22.05 С 5 50 км ясно +4.0 -5.1 51 -0 +1 998.2 994.3
00 23.05 С 3 50 км ясно +4.4 -4.9 51 +1 +7 997.4 993.5 +0.3 35
03 23.05 СВ 5 50 км ясно +5.8 -4.0 49 +2 +7 996.8 992.9
06 23.05 СВ 6 50 км ясно +6.0 -3.7 50 +2 +5 997.1 993.2
09 23.05 СВ 6
{10}
50 км ясно +4.4 -3.7 56 -0 +1 997.7 993.8
12 23.05 СВ 7-11
{11}
50 км ясно +2.2 -3.4 66 -4 -4 998.8 994.9 +6.9
15 23.05 С 6
{11}
50 км ясно +2.2 -1.5 76 -4 -4 999.6 995.6
18 23.05 СВ 9-12
{12}
50 км 3/0
[Ac trans]
+1.6 -1.8 78 -6 -6 1000.3 996.3
21 23.05 С 8-12
{12}
50 км 3/0
[Ac trans]
+1.2 -1.4 83 -6 -6 1001.4 997.4
00 24.05 СВ 6
{12}
50 км 4/0
[Ac trans Ci fib]
+2.2 -2.4 72 -4 -2 1002.1 998.1 +0.6 33
03 24.05 СВ 6 50 км 6/0
[Ac trans Ci fib]
+1.4 -4.1 67 -4 -2 1002.8 998.8

 

Местоположение метеостанции Кюсюр (Якутия, Россия): широта 70.68 долгота 127.40 высота над уровнем моря 33 м.

В архиве по умолчанию представлена погода в Кюсюре за последнюю неделю. Архивные данные за месяц целиком и за предыдущие месяцы, начиная с января 2011 года, Вы можете получить, выбрав интересующий диапазон дат из раскрывающегося списка и нажав кнопку "Ввод!".


*Определитесь, кто Вы:
робот инопланетянин человек

Внимание! Время в таблицах - всемирное. Для получения местного времени необходимо прибавить поправку, которая равна 9 ч.

Смотрите также архив погоды в соседних городах и на ближайших метеорологических станциях:

Погода в Тикси (Якутия, Россия) (114 км)
Погода на Мысе Быков (Якутия, Россия) (159 км)
Погода на Столб Острове (Якутия, Россия) (195 км)
Погода в Тюмяти (Якутия, Россия) (196 км)
Погода в Джарджане (Якутия, Россия) (253 км)
Погода в Усть-Куйге (Якутия, Россия) (316 км)
Погода в Юбилейной (Якутия, Россия) (323 км)
Погода в Батагай-Алыте (Якутия, Россия) (343 км)
Погода на Усть-Оленеке (Якутия, Россия) (368 км)
Погода в Сухане (Якутия, Россия) (419 км)

Пояснения к столбцам:

Ветер - указаны скорость ветра в м/с - средняя за 10 мин, порывы в срок и между сроками (в фигурных скобках) и направление, откуда дует ветер: С - северный, СВ - северо-восточный, В - восточный, ЮВ - юго-восточный, Ю - южный, ЮЗ - юго-западный, З - западный, СЗ - северо-западный.
Видимость - горизонтальная дальность видимости в метрах или километрах. При видимости от 1 до 10 км при отсутствии осадков обычно наблюдается дымка, при ухудшении видимости до 1 км и менее - туман. В сухую погоду видимость может ухудшаться дымом, пылью или мглою.
Явления - указаны атмосферные явления, наблюдавшиеся в срок или в последний час перед сроком; фигурными скобками обозначены явления, наблюдавшиеся между сроками (за 1-3 часа до срока); квадратными скобками обозначены град или гололедные отложения с указанием их диаметра в мм.
Облачность - указаны через наклонную черту общая и нижняя облачность в баллах и высота нижней границы облаков в метрах; квадратными скобками обозначены формы облаков: Ci - перистые, Cs - перисто-слоистые, Cc - перисто-кучевые, Ac - высококучевые, As - высокослоистые, Sc - слоисто-кучевые, Ns - слоисто-дождевые, Cu - кучевые, Cb - кучево-дождевые. Подробнее классификацию облаков см. в Атласе облаков (PDF).
T - Температура воздуха - температура, измеренная на высоте 2 м над землей.
Td - Температура точки росы - температура, при понижении до которой содержащийся в воздухе водяной пар достигнет насыщения.
f - Относительная влажность воздуха - влажноcть воздуха, измеренная на высоте 2 м над землей.
Te - Эффективная температура - температура, которую ощущает одетый по сезону человек в тени. Характеристика душности погоды. При расчете учитывается влияние влажности воздуха и скорости ветра на теплоощущения человека.
Tes - Эффективная температура на солнце - температура, которую ощущает человек, с поправкой на солнечный нагрев. Характеристика знойности погоды. Зависит от высоты солнца над горизонтом, облачности и скорости ветра. Ночью, в пасмурную погоду, а также при ветре 12 м/с и более поправка равна нулю.
P - Атмосферное давление - приведенное к уровню моря атмосферное давление.
Po - Атмосферное давление - измеренное на уровне метеостанции атмосферное давление.
Tmin - Минимальная температура - минимум температуры воздуха на высоте 2 м над землей.
Tmax - Максимальная температура - максимум температуры воздуха на высоте 2 м над землей.
R - Количество осадков - Количество выпавших осадков за период времени, мм. При наведении курсора мыши на число - период времени, за который выпало указанное количество осадков.
R24 - Количество осадков - Количество выпавших осадков за 24 часа, мм.
S - Снежный покров - Высота снежного покрова, см. При наведении курсора мыши на число - состояние снежного покрова и степень покрытия местности в баллах.